{"data":{"norad_id":64900,"epoch":"2026-05-25T03:35:30.242112Z","epoch_age_seconds":65230,"freshness":"FRESH","line1":"1 64900U 25156B   26145.14965558  .00004488  00000+0  21028-3 0  9998","line2":"2 64900  97.4326 224.1741 0000630 154.5409 205.5857 15.20205663 46035","mean_motion":15.20205663,"eccentricity":6.3e-5,"inclination_deg":97.4326,"raan_deg":224.1741,"arg_perigee_deg":154.5409,"mean_anomaly_deg":205.5857,"bstar":0.00021028,"rev_number":4603,"period_min":94.724025508383,"perigee_km":504.78607635912,"apogee_km":505.65337930682,"semimajor_km":6883.356727833,"source":"CELESTRAK","updated_at":"2026-05-25T13:38:12.839589Z"}}